Wetbulb
68.35 72.10 72.99 71.12 72.52 71.70 73.00 72.88 72.57 72.64 72.64 72.69 73.05 72.54 72.45 72.38 71.99 71.54 71.47 71.26 71.01 70.94 70.91 70.73 70.35 69.95 69.66 69.29 68.76 68.28 67.99 67.70 67.73 68.09 68.01 67.73 67.22 68.03 68.38 67.45 66.68 66.81 67.10
69.84 71.54 72.05 72.62 73.23 72.60 72.14 72.91 72.68 72.54 73.22 72.82 72.50 72.27 72.35 72.32 71.43 71.90 71.93 71.65 71.58 71.60 71.42 71.43 71.13 70.89 70.62 70.23 69.98 69.76 69.58 68.90 67.96 67.38 67.48 65.91 65.50 67.38 68.30 67.78 66.79 66.87 66.53
70.15 71.13 70.19 72.91 72.55 71.09 71.32 71.88 72.22 72.43 72.44 72.43 72.21 72.17 71.75 70.95 70.40 69.53 69.25 68.83 68.32 68.15 68.19 68.48 68.75 68.95 69.43 70.17 70.34 70.54 70.45 70.55 70.01 68.43 67.18 65.78 64.72 65.80 67.90 69.27 68.60 67.73 67.30
70.03 69.77 70.97 72.62 71.38 71.24 72.06 72.23 72.31 72.17 71.82 70.59 69.35 68.48 68.08 67.25 66.32 65.61 64.99 64.44 64.11 64.28 64.16 64.14 64.25 64.43 64.71 65.21 66.13 66.75 67.09 67.02 66.50 68.91 69.11 68.02 67.16 65.84 67.67 68.52 70.10 69.46 68.91
68.71 69.89 71.34 71.93 71.44 72.14 72.31 71.99 70.98 69.35 67.50 66.11 65.47 65.01 64.79 64.78 64.17 63.74 63.47 63.20 63.54 63.67 63.82 63.95 64.08 64.00 63.53 63.36 63.72 64.33 64.55 64.43 63.94 62.00 67.30 69.41 69.30 68.52 69.75 69.41 69.33 70.41 69.96
68.42 70.33 71.01 71.75 72.45 72.11 71.51 69.73 67.87 66.24 65.39 65.24 64.75 64.27 63.67 63.58 63.46 63.26 62.89 62.89 63.03 63.16 63.35 63.52 63.68 63.97 63.58 63.71 63.87 63.82 63.54 62.62 62.01 60.23 60.05 61.81 67.21 68.49 69.67 69.85 69.87 70.02 70.20
68.35 69.95 70.88 72.43 71.93 70.83 68.94 66.90 65.36 64.74 64.62 64.44 64.15 64.04 63.80 63.54 63.51 63.04 62.95 63.04 62.98 62.88 62.68 62.68 62.77 62.79 62.69 62.36 61.74 61.91 61.73 61.04 59.38 58.98 59.66 61.13 61.75 65.24 67.07 67.79 68.46 69.57 70.29
68.55 70.59 71.07 70.53 70.33 68.50 66.27 64.65 64.28 64.12 63.86 63.28 62.89 62.67 62.44 62.17 61.91 61.49 61.42 61.54 61.57 61.56 61.37 61.41 61.30 61.30 61.04 60.79 60.60 60.50 60.42 60.13 57.65 57.05 58.76 61.19 61.93 64.17 65.21 65.70 66.68 68.22 69.62
69.42 68.59 68.00 67.32 66.28 65.98 65.66 65.07 64.02 63.48 62.80 61.96 60.86 59.94 59.29 59.16 59.46 59.92 59.78 60.32 60.66 60.59 60.75 60.91 60.94 60.92 60.67 60.08 59.95 59.83 59.58 58.44 56.26 55.79 56.73 58.34 60.92 63.34 64.02 65.13 67.32 67.03 69.05
66.58 65.39 63.52 60.78 58.87 59.75 61.68 64.37 64.01 62.26 61.40 60.20 58.62 57.33 56.03 56.06 56.41 57.68 58.09 59.04 59.64 59.66 59.64 59.83 59.83 59.67 59.17 58.51 58.71 58.76 57.97 55.55 55.62 55.46 56.19 56.88 61.26 62.92 63.48 64.57 68.22 67.77 68.00
63.26 61.51 58.41 56.62 57.33 57.31 57.69 58.35 60.34 59.72 58.60 56.19 54.94 54.54 53.55 54.24 54.85 54.88 56.67 57.56 58.03 58.08 58.47 58.85 58.97 58.42 57.09 55.82 56.44 56.86 55.40 55.47 55.30 55.77 56.27 57.47 60.96 62.02 62.63 63.54 66.08 66.29 64.96
60.23 57.70 56.37 55.75 55.70 55.71 55.28 54.65 55.41 55.29 54.57 53.03 52.43 52.66 53.36 53.29 54.31 53.59 53.99 55.19 56.08 56.03 56.22 57.19 57.36 56.16 55.24 55.37 55.53 55.17 55.43 55.08 55.32 55.12 55.66 58.26 61.00 61.64 61.61 62.17 63.24 63.18 63.12
59.35 57.37 55.69 55.10 54.72 54.90 54.28 54.29 54.39 54.71 54.00 52.62 52.20 52.60 52.83 52.77 53.09 52.86 53.67 53.87 54.24 53.35 54.22 54.49 54.64 54.78 54.85 54.75 54.88 54.94 54.88 55.01 55.20 55.23 55.01 57.85 60.09 61.22 61.47 61.38 61.72 61.89 62.16
56.98 55.70 53.52 53.85 53.76 53.57 53.80 53.96 54.14 54.16 52.99 51.95 51.84 52.50 52.94 52.39 52.34 52.35 52.56 53.12 53.66 53.73 53.95 54.14 54.19 54.26 54.18 54.19 54.20 54.14 54.45 54.60 54.86 55.17 55.36 56.74 59.78 60.51 60.91 60.86 60.88 61.00 61.42
55.31 53.71 52.89 53.49 53.42 53.03 53.09 53.38 53.48 53.26 52.28 51.09 51.66 52.37 52.78 52.27 52.02 52.61 52.66 53.29 53.54 53.70 53.51 53.65 53.76 53.55 53.56 53.31 53.47 53.45 53.84 54.07 54.69 55.26 55.92 55.38 58.33 59.44 60.36 61.29 61.41 61.70 61.61
54.15 53.03 52.73 53.04 53.30 53.54 53.06 53.43 53.11 52.62 51.46 50.81 51.01 52.02 52.25 52.33 52.09 52.35 52.70 52.94 53.43 53.42 53.50 53.39 53.04 52.93 53.00 52.71 52.81 53.02 53.31 54.11 54.68 55.22 55.73 56.26 56.66 58.34 60.08 61.79 61.65 61.14 60.85
54.46 53.09 52.53 52.16 53.31 53.11 53.15 53.24 53.17 53.09 50.95 50.33 50.71 51.62 52.04 52.18 52.09 52.29 52.66 53.00 53.04 53.26 53.10 53.33 53.22 53.21 52.76 52.50 52.50 52.68 53.55 54.32 54.15 54.19 54.81 55.50 56.31 55.79 58.75 60.48 60.81 61.81 62.79
53.85 52.47 52.43 53.22 53.00 52.92 53.04 53.13 53.00 52.27 50.85 50.35 50.19 51.13 51.45 52.07 52.15 52.40 52.75 52.81 52.77 53.06 52.72 52.60 52.34 52.05 51.82 51.57 52.29 52.54 53.13 53.62 53.09 53.25 53.95 54.43 55.37 55.77 56.52 60.83 61.02 61.32 61.75
53.73 52.56 51.64 52.86 52.39 52.61 52.37 52.39 52.48 52.28 51.87 50.96 50.43 50.44 51.17 52.10 52.10 52.53 52.62 52.75 52.49 52.52 52.28 51.74 52.05 51.37 50.79 51.21 52.01 51.98 52.05 51.99 51.92 52.50 52.83 53.26 54.20 55.17 55.96 57.92 58.54 59.21 59.53
53.71 52.60 51.49 51.81 51.54 52.05 52.03 51.79 52.14 51.83 51.86 50.55 50.24 50.69 50.78 51.75 52.01 52.35 52.54 52.45 52.31 52.09 51.90 51.66 51.21 51.75 50.53 50.21 50.33 51.11 51.59 51.94 52.18 51.84 51.91 52.53 53.31 54.66 56.04 57.55 57.17 57.25 57.75
53.04 51.69 51.02 50.59 50.62 51.49 51.24 50.96 50.79 50.62 49.98 49.62 50.66 51.15 51.25 51.15 51.30 51.96 52.13 52.06 52.26 51.72 50.97 51.14 51.23 50.67 50.51 50.74 50.64 50.63 51.08 51.44 51.43 51.41 51.81 52.03 52.04 52.49 55.57 56.83 56.41 56.07 55.77
52.65 51.48 51.29 50.80 50.03 51.35 51.43 51.26 51.28 50.53 50.09 50.36 50.82 50.95 51.08 51.27 51.08 51.44 51.28 51.23 51.63 51.72 51.36 50.92 50.59 50.10 50.70 49.94 48.06 47.63 46.05 48.94 50.29 50.17 50.98 50.80 51.22 51.98 52.14 53.98 55.99 54.13 54.38
51.70 51.40 50.25 50.05 50.25 51.26 51.31 50.68 50.39 50.18 49.74 49.65 50.04 50.67 50.94 50.82 50.85 50.47 50.18 50.48 50.99 51.40 51.49 51.07 50.92 49.70 48.70 50.17 49.80 47.67 45.11 43.83 45.89 49.57 49.43 50.24 50.46 51.13 51.60 53.46 56.22 54.18 53.78
51.18 50.47 50.71 50.55 50.50 50.55 51.12 50.98 50.69 49.96 48.91 49.15 49.70 50.07 49.95 49.93 50.37 50.46 50.13 50.06 50.57 51.31 50.97 51.34 51.66 50.63 49.90 48.22 50.04 49.71 49.65 48.39 44.48 43.92 48.65 49.49 49.96 50.06 50.85 54.03 53.75 54.68 54.27
49.09 48.69 49.39 49.70 49.82 50.33 50.63 51.02 50.02 49.03 49.20 49.38 49.32 48.16 48.39 49.22 49.53 49.58 49.52 49.76 50.23 50.84 50.92 50.76 50.91 50.51 50.27 49.41 49.20 49.15 48.61 48.45 48.24 45.80 43.25 45.83 48.70 50.00 50.80 54.17 54.74 52.80 51.98
47.08 47.02 47.65 48.51 48.93 49.99 50.20 49.95 49.88 49.35 48.63 48.18 47.13 47.05 47.33 47.98 48.89 48.47 48.47 48.90 49.56 50.04 50.16 50.60 50.59 50.00 50.15 49.71 49.53 48.92 48.25 46.72 46.36 46.07 44.64 45.19 45.36 47.96 49.46 53.46 52.05 50.07 49.87
MSLP
1018.83 1018.71 1018.94 1019.16 1019.33 1019.51 1019.60 1019.66 1019.87 1019.95 1020.03 1020.05 1020.10 1020.21 1020.28 1020.25 1020.29 1020.30 1020.32 1020.31 1020.27 1020.21 1020.16 1020.10 1020.05 1020.01 1019.96 1019.89 1019.85 1019.81 1019.75 1019.70 1019.64 1019.59 1019.53 1019.45 1019.34 1019.19 1018.97 1018.97 1018.95 1018.69 1018.69
1018.52 1018.79 1019.09 1019.21 1019.38 1019.63 1019.82 1019.93 1020.06 1020.16 1020.14 1020.20 1020.25 1020.35 1020.40 1020.41 1020.42 1020.41 1020.41 1020.39 1020.36 1020.28 1020.21 1020.09 1020.05 1019.99 1019.96 1019.92 1019.86 1019.81 1019.72 1019.68 1019.65 1019.60 1019.51 1019.41 1019.32 1019.15 1019.01 1018.95 1018.96 1018.78 1018.81
1018.59 1018.90 1019.19 1019.37 1019.61 1019.81 1020.05 1020.19 1020.31 1020.37 1020.38 1020.44 1020.52 1020.57 1020.64 1020.70 1020.75 1020.77 1020.69 1020.70 1020.71 1020.65 1020.57 1020.41 1020.34 1020.25 1020.11 1020.03 1019.87 1019.72 1019.60 1019.56 1019.54 1019.58 1019.56 1019.22 1019.12 1019.09 1018.88 1018.82 1018.82 1018.79 1018.67
1018.58 1019.02 1019.34 1019.56 1019.81 1019.99 1020.14 1020.31 1020.46 1020.54 1020.65 1020.78 1020.85 1020.85 1020.94 1021.01 1021.02 1020.99 1021.02 1021.00 1020.95 1020.85 1020.72 1020.62 1020.51 1020.41 1020.29 1020.17 1019.99 1019.86 1019.74 1019.71 1019.67 1019.52 1019.25 1019.21 1019.05 1018.98 1018.82 1018.60 1018.47 1018.48 1018.42
1018.75 1019.11 1019.44 1019.67 1019.93 1020.09 1020.28 1020.54 1020.70 1020.85 1020.93 1021.05 1021.09 1021.12 1021.15 1021.21 1021.25 1021.21 1021.24 1021.22 1021.12 1021.03 1020.90 1020.77 1020.62 1020.50 1020.39 1020.21 1020.03 1019.87 1019.80 1019.79 1019.79 1019.60 1019.26 1019.09 1019.06 1018.83 1018.70 1018.46 1018.23 1018.09 1018.07
1018.99 1019.20 1019.57 1019.80 1020.01 1020.29 1020.50 1020.72 1020.93 1021.07 1021.17 1021.25 1021.33 1021.31 1021.37 1021.37 1021.41 1021.43 1021.39 1021.33 1021.22 1021.10 1021.00 1020.88 1020.73 1020.58 1020.44 1020.31 1020.13 1020.02 1019.95 1019.91 1019.75 1019.55 1019.35 1019.05 1018.92 1018.86 1018.50 1018.22 1018.04 1017.86 1017.79
1019.18 1019.38 1019.64 1019.88 1020.22 1020.46 1020.66 1020.89 1021.09 1021.27 1021.36 1021.45 1021.52 1021.50 1021.58 1021.59 1021.66 1021.63 1021.57 1021.42 1021.31 1021.19 1021.08 1020.90 1020.72 1020.66 1020.53 1020.41 1020.29 1020.18 1020.12 1020.01 1019.76 1019.53 1019.31 1019.13 1018.86 1018.68 1018.35 1018.08 1017.88 1017.66 1017.48
1019.17 1019.44 1019.71 1020.11 1020.39 1020.65 1020.86 1021.07 1021.24 1021.41 1021.55 1021.68 1021.78 1021.81 1021.94 1021.93 1021.95 1021.88 1021.76 1021.60 1021.48 1021.37 1021.24 1021.06 1020.88 1020.78 1020.68 1020.53 1020.39 1020.25 1020.15 1020.04 1019.75 1019.51 1019.27 1018.97 1018.85 1018.55 1018.14 1017.80 1017.57 1017.44 1017.26
1019.43 1019.68 1020.06 1020.38 1020.70 1020.90 1021.11 1021.28 1021.46 1021.67 1021.85 1021.98 1022.13 1022.15 1022.27 1022.30 1022.23 1022.14 1022.00 1021.78 1021.69 1021.56 1021.44 1021.30 1021.10 1020.94 1020.82 1020.71 1020.52 1020.33 1020.18 1020.08 1019.77 1019.54 1019.24 1018.88 1018.74 1018.29 1017.89 1017.59 1017.20 1017.02 1016.91
1019.73 1020.04 1020.43 1020.81 1021.08 1021.27 1021.40 1021.59 1021.77 1021.96 1022.14 1022.26 1022.38 1022.47 1022.56 1022.62 1022.54 1022.44 1022.30 1022.03 1021.92 1021.82 1021.65 1021.52 1021.35 1021.14 1021.03 1020.92 1020.68 1020.44 1020.26 1020.11 1019.81 1019.57 1019.24 1019.00 1018.66 1018.13 1017.70 1017.36 1017.18 1016.78 1016.87
1020.28 1020.49 1020.68 1021.00 1021.33 1021.57 1021.83 1022.04 1022.15 1022.28 1022.48 1022.55 1022.68 1022.75 1022.61 1022.77 1022.73 1022.60 1022.64 1022.40 1022.25 1022.05 1021.80 1021.75 1021.56 1021.39 1021.31 1021.08 1020.82 1020.54 1020.29 1020.04 1019.80 1019.51 1019.22 1019.04 1018.59 1018.15 1017.76 1017.41 1017.41 1017.22 1017.08
1020.40 1020.79 1020.85 1021.10 1021.32 1021.62 1021.97 1022.29 1022.57 1022.71 1022.77 1022.86 1022.91 1022.89 1022.76 1022.91 1022.96 1022.88 1022.81 1022.60 1022.42 1022.29 1022.13 1022.00 1021.82 1021.64 1021.38 1021.05 1020.72 1020.51 1020.22 1020.05 1019.77 1019.57 1019.22 1019.08 1018.62 1018.12 1017.80 1017.56 1017.48 1017.39 1017.26
1020.25 1020.74 1020.97 1021.19 1021.47 1021.63 1022.07 1022.39 1022.72 1022.90 1023.00 1023.10 1023.16 1023.11 1023.04 1023.06 1023.04 1023.00 1022.87 1022.72 1022.56 1022.51 1022.22 1022.05 1021.88 1021.65 1021.41 1021.12 1020.82 1020.50 1020.29 1020.02 1019.78 1019.57 1019.35 1019.12 1018.69 1018.25 1017.91 1017.66 1017.47 1017.37 1017.28
1020.32 1020.81 1021.06 1021.32 1021.64 1021.95 1022.20 1022.45 1022.73 1022.84 1023.09 1023.19 1023.33 1023.33 1023.21 1023.17 1023.18 1023.17 1023.11 1023.05 1022.85 1022.66 1022.37 1022.19 1021.92 1021.72 1021.42 1021.15 1020.86 1020.53 1020.30 1020.10 1019.88 1019.63 1019.39 1019.26 1018.80 1018.40 1018.02 1017.71 1017.49 1017.28 1017.12
1020.17 1020.71 1021.06 1021.35 1021.73 1022.13 1022.36 1022.65 1022.80 1022.99 1023.13 1023.30 1023.42 1023.46 1023.40 1023.36 1023.31 1023.39 1023.27 1023.21 1022.99 1022.78 1022.61 1022.33 1022.06 1021.73 1021.40 1021.09 1020.82 1020.65 1020.37 1020.14 1019.97 1019.75 1019.49 1019.46 1019.08 1018.72 1018.27 1017.85 1017.61 1017.45 1017.32
1020.09 1020.67 1021.09 1021.42 1021.74 1022.18 1022.53 1022.74 1022.87 1023.08 1023.24 1023.38 1023.55 1023.59 1023.56 1023.57 1023.54 1023.50 1023.29 1023.26 1023.09 1022.97 1022.73 1022.52 1022.26 1021.89 1021.51 1021.22 1020.82 1020.64 1020.42 1020.25 1020.01 1019.84 1019.64 1019.43 1019.40 1019.11 1018.64 1018.13 1017.87 1017.75 1017.59
1019.89 1020.51 1021.06 1021.40 1021.87 1022.20 1022.55 1022.85 1022.99 1023.13 1023.33 1023.48 1023.65 1023.66 1023.68 1023.74 1023.68 1023.63 1023.40 1023.32 1023.28 1023.06 1022.81 1022.49 1022.25 1021.94 1021.54 1021.24 1020.99 1020.77 1020.54 1020.39 1020.22 1020.09 1019.96 1019.76 1019.48 1019.41 1019.13 1018.77 1018.38 1018.15 1017.98
1019.88 1020.51 1020.97 1021.24 1021.85 1022.25 1022.60 1022.86 1023.03 1023.24 1023.40 1023.58 1023.71 1023.77 1023.78 1023.78 1023.68 1023.61 1023.42 1023.37 1023.38 1023.16 1022.92 1022.63 1022.44 1022.09 1021.79 1021.51 1021.22 1021.05 1020.84 1020.68 1020.47 1020.40 1020.24 1020.05 1019.88 1019.67 1019.51 1019.25 1018.91 1018.62 1018.37
1019.82 1020.41 1021.05 1021.48 1021.88 1022.28 1022.66 1022.89 1023.13 1023.31 1023.44 1023.63 1023.69 1023.79 1023.77 1023.71 1023.61 1023.61 1023.46 1023.44 1023.37 1023.18 1023.01 1022.89 1022.54 1022.44 1022.07 1021.76 1021.51 1021.33 1021.15 1020.93 1020.79 1020.63 1020.44 1020.32 1020.19 1020.00 1019.87 1019.80 1019.59 1019.28 1018.97
1019.83 1020.37 1021.03 1021.61 1021.91 1022.30 1022.71 1023.02 1023.23 1023.37 1023.52 1023.66 1023.71 1023.75 1023.78 1023.69 1023.61 1023.60 1023.47 1023.41 1023.46 1023.28 1023.13 1023.03 1022.84 1022.53 1022.43 1022.17 1021.83 1021.56 1021.50 1021.32 1021.16 1020.98 1020.82 1020.63 1020.43 1020.25 1020.11 1020.05 1019.91 1019.74 1019.57
1019.94 1020.36 1020.84 1021.47 1021.81 1022.23 1022.66 1022.94 1023.20 1023.23 1023.45 1023.54 1023.68 1023.69 1023.69 1023.66 1023.58 1023.56 1023.44 1023.48 1023.54 1023.43 1023.38 1023.21 1022.99 1022.75 1022.48 1022.23 1021.65 1021.55 1021.63 1021.63 1021.53 1021.44 1021.29 1020.99 1020.74 1020.61 1020.41 1020.38 1020.23 1020.04 1020.00
1019.89 1020.24 1020.72 1021.19 1021.53 1021.96 1022.24 1022.59 1022.83 1023.10 1023.37 1023.45 1023.64 1023.63 1023.61 1023.54 1023.54 1023.45 1023.40 1023.45 1023.51 1023.47 1023.36 1023.23 1023.12 1022.82 1022.63 1022.54 1022.16 1022.11 1021.74 1021.56 1021.43 1021.62 1021.61 1021.29 1021.02 1020.97 1020.65 1020.62 1020.39 1020.39 1020.37
1020.01 1020.27 1020.59 1020.96 1021.34 1021.73 1022.06 1022.57 1022.98 1023.20 1023.45 1023.53 1023.58 1023.55 1023.59 1023.60 1023.51 1023.37 1023.36 1023.46 1023.46 1023.44 1023.30 1023.25 1023.17 1023.03 1022.77 1022.61 1022.46 1022.29 1022.17 1022.08 1021.89 1021.52 1021.56 1021.44 1021.16 1021.01 1020.77 1020.76 1020.45 1020.51 1020.47
1019.80 1020.31 1020.59 1020.89 1021.23 1021.62 1021.94 1022.31 1022.50 1022.74 1023.08 1023.29 1023.52 1023.64 1023.61 1023.56 1023.37 1023.29 1023.31 1023.28 1023.25 1023.29 1023.27 1023.21 1023.05 1023.13 1023.06 1022.84 1022.69 1022.63 1022.65 1022.47 1022.37 1021.63 1021.43 1021.30 1021.26 1021.02 1020.83 1020.67 1020.50 1020.50 1020.48
1019.64 1020.08 1020.48 1020.83 1021.17 1021.49 1021.83 1022.07 1022.36 1022.65 1022.98 1023.26 1023.49 1023.58 1023.53 1023.37 1023.32 1023.25 1023.23 1023.19 1023.18 1023.21 1023.17 1023.15 1023.13 1023.13 1023.19 1023.09 1022.94 1022.84 1022.81 1022.49 1022.49 1022.37 1021.57 1021.29 1020.97 1020.98 1020.77 1020.66 1020.60 1020.63 1020.61
1019.57 1020.11 1020.48 1020.73 1021.03 1021.34 1021.67 1021.99 1022.22 1022.44 1022.81 1023.09 1023.29 1023.35 1023.43 1023.32 1023.22 1023.29 1023.25 1023.12 1023.05 1022.99 1022.96 1022.93 1022.91 1023.01 1023.05 1023.06 1023.00 1022.94 1022.97 1022.80 1022.50 1022.62 1022.13 1021.66 1021.29 1020.78 1020.64 1020.50 1020.75 1020.84 1020.81
Wind_Speed
5 8 13 13 13 12 10 10 12 10 10 10 10 9 10 11 9 8 8 8 8 8 8 8 8 8 8 8 8 7 7 6 6 6 6 7 6 6 4 4 4 4 5
10 10 11 10 15 13 12 12 12 11 12 10 11 10 11 12 13 13 12 12 13 13 12 11 10 8 8 8 8 7 7 6 6 5 5 4 4 7 4 2 2 2 2
11 11 10 12 14 13 12 11 11 11 11 12 13 13 14 13 13 12 12 13 13 13 13 13 13 14 14 15 13 12 10 11 8 4 5 4 5 5 6 6 6 5 4
13 11 10 13 13 12 11 10 10 13 14 14 13 13 13 12 12 13 12 12 12 12 12 12 11 11 11 13 13 13 12 11 11 8 4 5 6 6 8 8 10 9 8
13 11 10 12 12 12 11 13 14 14 14 13 13 12 12 12 12 12 12 12 12 12 12 12 11 11 11 11 11 12 12 12 11 8 7 5 5 7 10 11 10 11 10
12 12 11 11 12 13 14 14 14 13 13 13 12 12 11 10 11 11 11 10 10 10 11 11 11 11 11 11 12 12 12 12 9 7 7 7 7 8 11 12 12 12 12
11 10 11 11 15 15 14 14 13 13 13 13 13 13 12 11 11 11 11 11 11 11 11 11 11 12 12 11 12 12 12 12 9 7 7 7 7 11 12 12 13 14 13
13 10 11 13 14 14 14 13 13 13 13 13 13 13 13 12 12 12 11 11 11 11 11 11 11 11 12 13 13 13 13 12 7 7 7 6 7 10 11 12 14 14 14
10 11 9 10 11 13 12 12 13 13 13 13 13 13 13 12 12 12 12 12 12 12 12 12 13 13 13 13 13 13 12 11 7 6 7 5 9 10 10 11 13 12 12
9 10 9 8 8 8 8 12 12 13 13 13 13 13 12 11 11 12 11 12 12 13 13 13 13 13 13 13 13 13 12 9 7 6 5 5 12 12 11 10 12 6 5
8 8 8 8 7 7 7 8 10 12 12 11 10 11 8 6 7 8 10 12 11 12 13 13 13 13 12 11 12 12 10 5 6 5 4 10 12 12 12 10 9 8 6
10 8 7 8 8 7 6 6 6 6 6 6 6 6 5 6 6 6 7 11 11 13 11 12 12 11 9 6 6 7 5 6 5 5 4 12 11 11 11 9 7 7 7
11 6 6 7 6 7 6 4 3 3 3 4 5 5 5 4 4 4 4 4 5 8 5 7 6 6 8 7 6 6 6 6 4 4 6 11 11 11 11 10 9 7 7
9 7 6 7 6 6 4 4 4 3 3 3 4 5 4 3 4 5 4 5 5 4 6 6 4 6 8 9 8 7 6 5 4 3 5 11 11 10 10 8 7 7 6
9 7 6 8 7 6 6 4 4 4 3 3 3 4 3 4 4 4 4 4 4 5 5 5 6 7 8 9 7 6 6 7 6 4 3 9 11 11 11 10 8 7 6
8 7 7 7 7 6 5 5 4 3 3 3 3 3 4 4 3 3 4 4 4 4 4 4 5 6 7 7 7 6 5 5 6 6 4 5 11 11 11 11 10 9 8
9 8 7 7 7 7 6 5 3 3 3 3 2 3 4 3 4 3 3 4 4 4 6 5 6 5 6 7 7 6 5 6 6 7 6 5 5 8 11 10 9 11 12
8 8 6 7 8 7 6 4 3 3 3 2 1 1 3 3 4 3 3 4 4 4 4 5 4 6 7 6 5 5 4 5 7 7 7 6 6 5 6 14 14 15 16
8 9 7 7 8 7 6 4 3 3 2 1 1 1 1 1 2 2 2 3 4 4 4 4 4 4 6 6 4 4 4 5 7 6 8 8 7 6 4 8 12 14 15
8 8 7 5 8 7 4 3 2 1 1 1 1 0 1 1 0 1 2 3 3 3 4 5 5 5 5 5 2 3 4 4 4 7 6 6 7 7 5 5 5 7 14
7 8 9 8 7 6 2 2 1 1 1 1 0 1 1 1 1 2 1 2 2 3 4 4 4 5 5 6 2 2 1 2 6 5 6 5 8 8 6 4 3 4 5
8 7 8 7 8 6 3 2 2 2 1 1 0 1 1 3 3 2 2 2 2 2 3 4 4 3 3 5 4 1 3 1 3 4 3 6 8 6 6 4 3 4 4
8 9 8 8 8 7 5 4 3 2 2 1 1 0 2 4 3 3 3 3 3 2 2 2 2 4 3 3 5 3 2 3 4 1 3 3 7 5 7 5 1 3 3
7 6 7 8 8 6 7 4 4 3 3 2 1 1 3 3 3 3 2 3 3 3 3 2 1 2 2 3 1 3 0 2 3 4 1 3 5 5 7 5 1 3 4
7 7 7 7 7 6 7 6 5 4 2 2 1 2 2 2 2 2 3 2 2 2 3 3 2 1 1 1 1 1 2 2 3 3 5 5 6 3 4 4 1 3 4
6 6 7 8 6 7 7 6 6 6 4 2 1 1 1 2 2 3 4 2 2 2 3 3 4 4 3 3 2 1 2 2 2 3 4 7 7 4 6 1 2 2 2
Wind_Direction
160 151 136 137 124 132 117 112 111 95 90 80 89 83 71 70 64 72 62 57 49 43 38 34 31 27 23 23 23 19 17 19 18 16 9 4 1 347 346 14 6 11 27
143 140 135 135 133 102 93 88 109 83 92 75 75 76 71 65 54 59 46 41 41 34 29 27 18 11 2 0 1 357 357 2 7 10 4 356 345 340 301 299 294 331 356
134 134 134 121 109 108 104 99 97 87 78 72 68 63 59 54 54 51 40 37 33 31 28 21 14 6 12 19 13 7 358 2 353 359 357 336 328 321 324 277 255 256 259
135 134 136 119 118 116 111 104 95 84 72 66 64 62 59 56 55 51 45 40 32 25 22 19 16 10 4 5 7 3 359 0 2 351 319 329 323 314 306 303 266 253 252
131 135 136 126 131 123 109 95 83 80 75 69 64 61 59 57 53 50 43 36 32 30 26 20 16 12 6 2 359 359 356 354 345 335 327 313 304 307 307 299 299 259 251
135 138 132 138 132 111 101 94 88 83 78 70 64 62 60 57 52 45 41 35 29 25 18 14 11 14 11 6 1 359 359 358 348 338 323 311 304 303 304 307 297 295 260
138 139 142 140 116 109 104 98 92 86 79 72 66 64 58 57 51 46 39 32 26 20 12 11 11 8 7 7 1 1 0 359 353 341 333 316 299 305 307 304 301 299 294
137 135 123 114 113 111 106 103 97 90 82 75 70 66 61 57 50 45 37 29 22 17 12 11 10 7 2 359 356 353 352 353 343 337 333 329 318 308 307 305 298 292 293
127 117 113 112 106 101 99 98 96 91 83 78 71 67 61 55 46 39 34 29 23 18 16 13 8 2 359 358 356 355 356 353 338 331 330 330 330 316 313 311 319 286 289
120 119 113 104 99 93 92 90 90 87 83 78 72 68 60 52 48 39 34 33 30 24 17 10 5 6 6 4 1 360 358 351 351 337 332 331 326 324 319 337 336 324 358
117 121 122 118 109 101 92 77 84 80 77 73 67 65 64 52 42 41 33 35 32 25 24 18 17 14 9 4 1 359 356 356 349 344 329 329 328 322 321 337 11 21 44
145 143 135 126 119 109 99 86 82 75 75 70 68 65 66 55 47 43 35 35 30 24 23 16 12 9 7 1 354 354 359 349 350 340 336 337 337 329 320 323 337 351 353
154 145 142 131 124 118 112 105 93 87 79 71 64 63 62 55 43 35 31 25 21 16 17 14 8 12 2 359 353 355 349 349 348 344 345 350 349 345 343 337 325 322 327
152 144 135 135 124 113 111 106 108 100 93 80 66 61 50 52 42 34 31 20 16 9 7 9 7 1 359 353 352 347 352 359 351 352 5 359 3 0 353 341 327 314 318
151 151 147 142 132 124 115 117 107 101 99 88 74 62 50 53 48 26 32 20 16 10 7 8 3 1 357 352 356 357 4 6 16 16 11 8 12 10 1 1 358 14 25
145 152 146 143 131 130 123 120 116 113 107 89 78 69 60 60 50 32 31 19 15 6 7 360 359 357 353 353 2 7 21 36 36 34 25 17 16 17 12 16 26 19 358
162 143 149 135 132 130 125 125 122 118 114 102 86 70 57 60 57 40 34 22 9 4 0 3 3 358 359 2 18 34 48 45 43 38 28 22 16 20 16 20 21 22 29
143 151 140 141 140 129 131 132 125 120 116 111 90 76 67 72 62 46 35 25 6 7 4 1 3 360 3 10 24 37 48 53 46 39 35 29 23 17 24 37 42 40 35
150 144 144 147 143 140 136 126 127 130 123 115 92 69 42 59 68 39 38 25 9 9 14 357 359 2 3 8 27 49 59 63 51 43 41 33 30 25 20 43 43 43 46
144 141 138 146 145 140 127 122 123 118 112 115 80 342 296 288 6 4 34 21 6 4 11 7 353 6 3 353 10 52 55 53 49 44 35 35 34 30 30 36 40 49 44
148 150 154 156 157 152 150 153 166 169 150 131 132 311 298 309 315 271 340 337 347 4 2 359 345 349 8 358 10 43 20 6 32 37 26 31 31 26 31 30 43 56 55
174 160 159 168 161 178 158 147 138 146 140 124 250 289 56 352 328 282 282 285 282 319 0 9 16 354 7 17 29 16 360 161 18 28 17 27 22 9 19 358 40 45 38
180 181 172 172 173 176 158 127 113 108 114 152 181 287 345 330 322 313 288 266 257 249 295 332 348 26 9 15 37 39 350 348 328 12 355 355 11 8 9 343 356 81 51
195 181 179 174 171 173 166 163 166 170 173 175 165 304 321 337 343 335 287 262 250 238 252 283 337 9 1 15 0 37 350 280 327 315 272 314 345 3 357 347 286 97 74
169 181 178 172 170 164 172 173 165 171 175 140 184 313 324 335 348 354 345 320 274 251 257 265 283 300 312 307 350 350 326 307 274 273 304 313 331 301 343 349 110 108 74
169 173 175 169 170 167 168 169 176 178 172 175 194 246 334 331 348 6 348 343 310 271 259 255 251 249 259 258 268 267 279 292 297 291 300 313 315 310 314 292 155 112 63